[[{"header":{"parameterUnit":"m.s-1","parameterCategory":1,"la1":30.2991,"la2":30.254,"lo1":-89.0895,"lo2":-89.0444,"dy":0.0017,"dx":0.0017,"nx":28,"ny":28,"refTime":"2025-11-28T09:00:00:Z","depth":0,"parameterNumber":2,"parameterNumberName":"U-component_of_WINDS"},"data":[0,0,0,0,0,0,0,0,0,0,0,0,0,0,0,0,0,0,0,0,0,0,0,0,0,0,0,0,0,0,0,0,0,0,0,0,0,0,0,0,0,0,0,0,0,0,0,0,0,0,0,0,0,0,0,0,0,0,-5.4632,-5.4633,0,-5.4679,-5.468,-5.468,-5.4508,-5.4503,-5.4497,-5.4493,-5.4541,-5.4547,-5.4553,0,0,0,0,0,0,0,0,0,0,0,0,0,-5.4391,-5.4397,-5.4632,-5.4633,-5.4634,-5.4679,-5.468,-5.4681,-5.4509,-5.4502,-5.4496,-5.449,-5.4539,-5.4546,-5.4553,0,0,0,0,0,0,0,0,0,0,0,0,0,-5.4473,-5.4398,-5.4632,-5.4553,-5.4547,-5.4679,-5.468,-5.4681,-5.451,-5.4502,-5.4495,-5.4487,-5.4536,-5.4545,-5.4554,-5.4765,0,0,-5.4582,-5.4586,0,0,0,0,0,0,0,0,-5.4469,-5.4482,-5.4564,-5.4559,-5.4552,-5.458,-5.4612,-5.4709,-5.4512,-5.4524,-5.4492,-5.4484,-5.456,-5.4567,-5.4592,-5.4767,-5.4769,-5.4583,-5.4588,-5.4592,-5.4595,0,0,0,0,0,0,0,-5.4463,-5.4479,-5.4651,-5.4566,-5.4558,-5.4515,-5.4518,-5.463,-5.4585,-5.4522,-5.451,-5.4518,-5.4555,-5.4584,-5.4592,-5.477,-5.4583,-5.4591,-5.4596,-5.46,-5.5116,-5.5124,0,0,0,0,0,0,-5.4468,-5.4476,-5.4649,-5.4652,-5.449,-5.4525,-5.4529,-5.4579,-5.4583,-5.4576,-5.4524,-5.451,-5.4572,-5.4582,-5.4593,-5.4837,-5.4592,-5.4601,-5.4606,-5.5108,-5.5118,-5.5127,0,0,0,0,0,0,-5.4464,-5.4485,-5.4647,-5.4561,-5.4578,-5.4538,-5.4595,-5.4584,-5.4612,-5.4585,-5.4575,-5.4563,-5.4567,-5.458,-5.4723,-5.4837,-5.4605,-5.4613,-5.5098,-5.5111,-5.5122,-5.533,0,0,0,0,0,0,-5.4458,-5.4485,-5.4565,-5.4564,-5.4583,-5.4778,-5.4602,-5.459,-5.4629,-5.461,-5.4618,-5.4612,-5.4562,-5.471,-5.4732,-5.4845,-5.462,-5.5088,-5.5104,-5.5118,-5.5313,-5.5348,-5.5378,0,0,0,0,0,-5.445,-5.4623,-5.457,-5.4592,-5.4683,-5.4784,-5.4795,-5.4734,-5.4639,-5.4718,-5.47,-5.4612,-5.4821,-5.4726,-5.4749,-5.4867,-5.508,-5.5099,-5.5117,-5.5298,-5.5341,-5.5377,0,0,0,0,0,0,-5.4639,-5.4621,-5.4563,-5.4741,-5.4765,-5.4755,-5.4854,-5.4782,-5.4835,-5.4815,-5.4736,-5.474,-5.4895,-5.4895,-5.479,-5.5069,-5.4934,-5.4958,-5.5063,-5.5104,-5.5136,-5.5132,-5.4628,0,0,0,0,0,-5.4702,-5.4786,-5.4765,-5.4924,-5.494,-5.4895,-5.4937,-5.4888,-5.491,-5.492,-5.4912,-5.4937,-5.5007,-5.5056,-5.512,-5.5312,-5.531,-5.5404,-5.5437,-5.5464,-5.5485,-5.5583,-5.5624,-5.5188,-5.5188,-5.5187,0,0,-5.4832,-5.4832,-5.489,-5.4962,-5.4976,-5.5063,-5.4905,-5.5006,-5.5069,-5.4935,-5.5067,-5.5063,-5.5085,-5.5253,-5.5326,-5.5258,-5.5605,-5.5487,-5.5509,-5.5516,-5.5607,-5.5648,-5.5685,-5.52,-5.5198,-5.5196,0,0,-5.5113,-5.5123,-5.5255,-5.5271,-5.5293,-5.5261,-5.5293,-5.5294,-5.5285,-5.5417,-5.5317,-5.5392,-5.5517,-5.5536,-5.5562,-5.5848,-5.5768,-5.5871,-5.6041,-5.6138,-5.6172,-5.6202,-5.6302,-5.6339,-5.5893,-5.5893,-5.5894,0,-5.5272,-5.54,-5.5332,-5.5438,-5.5471,-5.5353,-5.5484,-5.5504,-5.5546,-5.5571,-5.5494,-5.5646,-5.5653,-5.5821,-5.5891,-5.5917,-5.5949,-5.5869,-5.6173,-5.6202,-5.6229,-5.6323,-5.6361,-5.5905,-5.5904,-5.5903,-5.5902,0,-5.5593,-5.5684,-5.5788,-5.583,-5.5875,-5.5994,-5.5942,-5.5996,-5.5942,-5.5919,-5.6054,-5.6058,-5.6119,-5.6156,-5.6105,-5.6317,-5.6273,-5.6186,-5.6048,-5.6284,-5.6371,-5.6407,-5.5923,-5.5919,-5.5915,-5.5912,0,0,-5.5995,-5.5996,-5.6036,-5.6052,-5.6066,-5.6134,-5.6247,-5.6306,-5.6353,-5.6386,-5.6476,-5.6584,-5.6502,-5.6532,-5.6482,-5.6568,-5.679,-5.6469,-5.6468,-5.6527,-5.7021,-5.7084,-5.7127,-5.6738,-5.6745,-5.675,-5.7018,0,-5.6269,-5.6461,-5.6401,-5.6595,-5.6676,-5.6564,-5.6661,-5.668,-5.6661,-5.6727,-5.6705,-5.6781,-5.667,-5.6686,-5.6766,-5.6747,-5.6888,-5.6727,-5.682,-5.6824,-5.6816,-5.7173,-5.7241,-5.7494,-5.7051,-5.7057,-5.7061,0,-5.6614,-5.6659,-5.6861,-5.6858,-5.689,-5.6979,-5.7027,-5.7092,-5.711,-5.709,-5.7123,-5.7054,-5.7162,-5.7026,-5.7173,-5.7064,-5.7099,-5.7095,-5.7103,-5.7108,-5.6956,-5.7185,-5.7573,-5.7611,-5.7115,-5.711,-5.7107,0,-5.6884,-5.6995,-5.7129,-5.7147,-5.7148,-5.7213,-5.7216,-5.7227,-5.7265,-5.7308,-5.7331,-5.7386,-5.7416,-5.7459,-5.7407,-5.7313,-5.7561,-5.7421,-5.7546,-5.7547,-5.7602,-5.7599,-5.7999,-5.7629,-5.7628,-5.7627,-5.7627,0,-5.7195,-5.7322,-5.7249,-5.7332,-5.7469,-5.7399,-5.7538,-5.7528,-5.7539,-5.7616,-5.7523,-5.7598,-5.7525,-5.7592,-5.7552,-5.7678,-5.7693,-5.7679,-5.7666,-5.7686,-5.7688,-5.7706,-5.7686,-5.7637,-5.7635,-5.7633,-5.7632,0,-5.7519,-5.7476,-5.7613,-5.7603,-5.7603,-5.7705,-5.7696,-5.7771,-5.7744,-5.7843,-5.7863,-5.7822,-5.7896,-5.7848,-5.7924,-5.7897,-5.8061,-5.8026,-5.8055,-5.8044,-5.8171,-5.8159,-5.8595,-5.8648,-5.8247,-5.8251,-5.8254,0,-5.7719,-5.7813,-5.7812,-5.7857,-5.7866,-5.7941,-5.7979,-5.7913,-5.7957,-5.7983,-5.8055,-5.8121,-5.817,-5.8294,-5.8271,-5.8327,-5.829,-5.844,-5.8298,-5.8314,-5.8289,-5.8283,-5.8291,-5.8468,-5.8472,-5.8476,-5.8479,0,-5.8077,-5.805,-5.8109,-5.816,-5.8208,-5.8246,-5.8275,-5.8318,-5.8251,-5.8305,-5.8379,-5.8417,-5.8493,-5.856,-5.8607,-5.8609,-5.8533,-5.8524,-5.8555,-5.8575,-5.8587,-5.8579,-5.813,-5.8514,-5.851,-5.8508,-5.8506,-5.8505,-5.8343,-5.842,-5.8431,-5.8499,-5.8514,-5.8543,-5.8612,-5.8594,-5.8655,-5.8711,-5.8669,-5.8757,-5.877,-5.8825,-5.8837,-5.8904,-5.8843,-5.8889,-5.8901,-5.8912,-5.8929,-5.8579,-5.8913,-5.8911,-5.891,-5.891,-5.8909,0,-5.8693,-5.8694,-5.8757,-5.8801,-5.8854,-5.8778,-5.8806,-5.8855,-5.8934,-5.8952,-5.9002,-5.9087,-5.915,-5.9131,-5.9187,-5.9244,-5.9211,-5.9261,-5.9255,-5.9256,-5.8981,-5.8947,-5.9287,-5.9287,-5.9287,-5.9287,-5.9287,-5.9287,-5.8882,-5.9008,-5.8983,-5.9115,-5.9114,-5.9199,-5.9221,-5.9247,-5.9261,-5.936,-5.9411,-5.9399,-5.9402,-5.9457,-5.9511,-5.9503,-5.9527,-5.959,-5.957,-5.9313,-5.9276,-5.924,-5.9207,-5.9597,-5.9597,-5.9839,-5.9841,-5.9843]},{"header":{"parameterUnit":"m.s-1","parameterCategory":1,"la1":30.2991,"la2":30.254,"lo1":-89.0895,"lo2":-89.0444,"dy":0.0017,"dx":0.0017,"nx":28,"ny":28,"refTime":"2025-11-28T09:00:00:Z","depth":0,"parameterNumber":3,"parameterNumberName":"V-component_of_WINDS"},"data":[0,0,0,0,0,0,0,0,0,0,0,0,0,0,0,0,0,0,0,0,0,0,0,0,0,0,0,0,0,0,0,0,0,0,0,0,0,0,0,0,0,0,0,0,0,0,0,0,0,0,0,0,0,0,0,0,0,0,-3.7154,-3.7155,0,-3.7218,-3.7219,-3.722,-3.7175,-3.7173,-3.7171,-3.717,-3.7233,-3.7236,-3.724,0,0,0,0,0,0,0,0,0,0,0,0,0,-3.6989,-3.6992,-3.7154,-3.7155,-3.7156,-3.7218,-3.7219,-3.722,-3.7176,-3.7173,-3.7171,-3.7169,-3.7232,-3.7236,-3.724,0,0,0,0,0,0,0,0,0,0,0,0,0,-3.7058,-3.6993,-3.7154,-3.7141,-3.7141,-3.7218,-3.7219,-3.722,-3.7176,-3.7173,-3.717,-3.7168,-3.723,-3.7235,-3.724,-3.7333,0,0,-3.7257,-3.7259,0,0,0,0,0,0,0,0,-3.7054,-3.7064,-3.7142,-3.7142,-3.7142,-3.7186,-3.7184,-3.7258,-3.7177,-3.7163,-3.717,-3.7166,-3.7219,-3.7225,-3.7244,-3.7336,-3.7339,-3.7257,-3.726,-3.7263,-3.7264,0,0,0,0,0,0,0,-3.7049,-3.7061,-3.7179,-3.7143,-3.7143,-3.7131,-3.7137,-3.7198,-3.7207,-3.7164,-3.7161,-3.7169,-3.7219,-3.7239,-3.7245,-3.7339,-3.7257,-3.7262,-3.7265,-3.7267,-3.7507,-3.751,0,0,0,0,0,0,-3.7046,-3.7057,-3.7177,-3.7181,-3.709,-3.7136,-3.7144,-3.7175,-3.7206,-3.7208,-3.7172,-3.7167,-3.7231,-3.7239,-3.7247,-3.7355,-3.7263,-3.7268,-3.7271,-3.7504,-3.7508,-3.7511,0,0,0,0,0,0,-3.7042,-3.7057,-3.7175,-3.7118,-3.7132,-3.7142,-3.7178,-3.7178,-3.7198,-3.7212,-3.7213,-3.7191,-3.7229,-3.724,-3.7311,-3.7357,-3.727,-3.7275,-3.75,-3.7505,-3.7509,-3.7573,0,0,0,0,0,0,-3.7038,-3.7056,-3.7093,-3.712,-3.7136,-3.724,-3.7181,-3.7181,-3.7207,-3.7202,-3.723,-3.7232,-3.7228,-3.7304,-3.7317,-3.7362,-3.7279,-3.7496,-3.7502,-3.7508,-3.7567,-3.7579,-3.759,0,0,0,0,0,-3.7032,-3.7108,-3.7095,-3.7109,-3.7182,-3.7242,-3.7251,-3.7245,-3.7211,-3.7247,-3.7255,-3.7231,-3.735,-3.7311,-3.7326,-3.7374,-3.7493,-3.75,-3.7507,-3.7562,-3.7577,-3.759,0,0,0,0,0,0,-3.7086,-3.7111,-3.7097,-3.7184,-3.7211,-3.7235,-3.728,-3.7262,-3.7299,-3.7292,-3.7282,-3.7289,-3.7363,-3.7376,-3.7333,-3.7463,-3.7416,-3.7426,-3.7452,-3.7467,-3.7478,-3.7473,-3.7283,0,0,0,0,0,-3.7108,-3.7156,-3.7176,-3.725,-3.7265,-3.727,-3.7296,-3.7289,-3.7317,-3.7328,-3.7342,-3.7369,-3.7411,-3.744,-3.748,-3.7569,-3.7573,-3.7608,-3.762,-3.7629,-3.7638,-3.7683,-3.7698,-3.7535,-3.7535,-3.7534,0,0,-3.7154,-3.7174,-3.7205,-3.7262,-3.7282,-3.733,-3.728,-3.7334,-3.7369,-3.7336,-3.7404,-3.7415,-3.7444,-3.7524,-3.7559,-3.7536,-3.7684,-3.7639,-3.7646,-3.7649,-3.7692,-3.7707,-3.7721,-3.7539,-3.7539,-3.7538,0,0,-3.7262,-3.7283,-3.7346,-3.7367,-3.7399,-3.7401,-3.7416,-3.7442,-3.7448,-3.7517,-3.7492,-3.7533,-3.7608,-3.7628,-3.7649,-3.7762,-3.774,-3.7776,-3.7836,-3.788,-3.7892,-3.7904,-3.7942,-3.7956,-3.7785,-3.7785,-3.7785,0,-3.7315,-3.7388,-3.7381,-3.7436,-3.7461,-3.7433,-3.7495,-3.7516,-3.7559,-3.7575,-3.7549,-3.7641,-3.7658,-3.7741,-3.7768,-3.7787,-3.7802,-3.7772,-3.7891,-3.7903,-3.7913,-3.7949,-3.7964,-3.7789,-3.7788,-3.7788,-3.7787,0,-3.745,-3.7501,-3.7548,-3.759,-3.762,-3.7679,-3.7679,-3.771,-3.7699,-3.7704,-3.7773,-3.7793,-3.7835,-3.7855,-3.7846,-3.7936,-3.792,-3.7893,-3.7845,-3.7933,-3.7966,-3.798,-3.7794,-3.7793,-3.7792,-3.7791,0,0,-3.7594,-3.763,-3.7647,-3.7665,-3.7696,-3.7735,-3.7791,-3.7833,-3.7859,-3.7889,-3.7934,-3.7997,-3.7972,-3.7995,-3.7988,-3.8026,-3.8112,-3.7994,-3.7994,-3.8013,-3.8209,-3.8228,-3.8244,-3.8098,-3.81,-3.8102,-3.8206,0,-3.7702,-3.7801,-3.7795,-3.7888,-3.7933,-3.7906,-3.7955,-3.7979,-3.7984,-3.8022,-3.8028,-3.8072,-3.8036,-3.8049,-3.8086,-3.8093,-3.815,-3.8086,-3.8138,-3.814,-3.813,-3.8262,-3.8283,-3.838,-3.8219,-3.8221,-3.8223,0,-3.7842,-3.7876,-3.7973,-3.7995,-3.8014,-3.8058,-3.8095,-3.8133,-3.8158,-3.8159,-3.8184,-3.8169,-3.8224,-3.8176,-3.825,-3.8206,-3.8227,-3.8233,-3.8237,-3.824,-3.8186,-3.8267,-3.8411,-3.8425,-3.8244,-3.8243,-3.8241,0,-3.7934,-3.8005,-3.8071,-3.8087,-3.8116,-3.8147,-3.816,-3.8182,-3.8207,-3.8239,-3.8254,-3.8292,-3.8313,-3.8341,-3.8337,-3.8302,-3.8411,-3.8363,-3.8412,-3.8412,-3.8435,-3.8433,-3.8582,-3.8451,-3.8451,-3.8451,-3.8451,0,-3.8054,-3.8114,-3.8113,-3.8153,-3.8219,-3.8211,-3.8275,-3.8284,-3.8304,-3.8345,-3.8324,-3.8362,-3.8354,-3.8392,-3.8389,-3.8449,-3.8459,-3.846,-3.8458,-3.8461,-3.846,-3.8473,-3.8466,-3.8455,-3.8454,-3.8453,-3.8452,0,-3.8168,-3.817,-3.824,-3.8261,-3.8267,-3.8314,-3.8331,-3.8369,-3.8372,-3.8424,-3.8435,-3.844,-3.8483,-3.8481,-3.853,-3.8528,-3.8601,-3.8593,-3.8593,-3.859,-3.8638,-3.8633,-3.8799,-3.8819,-3.8678,-3.8679,-3.868,0,-3.8244,-3.8289,-3.8314,-3.834,-3.8355,-3.8398,-3.8423,-3.8416,-3.8442,-3.8473,-3.8506,-3.8548,-3.858,-3.865,-3.8657,-3.8693,-3.8684,-3.8739,-3.8689,-3.869,-3.8682,-3.8679,-3.8682,-3.8749,-3.875,-3.8752,-3.8753,0,-3.8377,-3.8375,-3.8413,-3.845,-3.8481,-3.8509,-3.8536,-3.8558,-3.8553,-3.8584,-3.8628,-3.8653,-3.8702,-3.8743,-3.8777,-3.8789,-3.877,-3.8769,-3.8781,-3.8784,-3.8781,-3.8781,-3.8618,-3.8765,-3.8763,-3.8763,-3.8762,-3.8761,-3.8473,-3.8511,-3.8534,-3.8576,-3.8595,-3.8619,-3.8655,-3.8662,-3.8699,-3.8739,-3.8732,-3.8781,-3.8802,-3.8847,-3.8862,-3.8898,-3.8878,-3.8897,-3.8902,-3.8906,-3.8911,-3.8777,-3.8905,-3.8904,-3.8904,-3.8904,-3.8903,0,-3.8603,-3.8617,-3.8655,-3.8692,-3.8724,-3.8704,-3.8732,-3.8759,-3.8802,-3.8825,-3.8857,-3.8906,-3.8944,-3.8954,-3.899,-3.9017,-3.9009,-3.9027,-3.9024,-3.9026,-3.8927,-3.8912,-3.9033,-3.9033,-3.9033,-3.9033,-3.9033,-3.9033,-3.8675,-3.8737,-3.8738,-3.8808,-3.8821,-3.8868,-3.8885,-3.8907,-3.8925,-3.898,-3.9012,-3.9018,-3.9035,-3.9072,-3.9106,-3.9107,-3.9121,-3.9142,-3.914,-3.9047,-3.9034,-3.9021,-3.9006,-3.9145,-3.9145,-3.9235,-3.9236,-3.9237]}]]